GW0564 Weather Reports


time (UTC)temp
C
wind
direction
speed
KPH
gust
KPH
rain 1hr
cm
rain 24hr
cm
rain mn
cm
humidity
%
barometer
mb
20260906230050 26 360 3.2 16.1 0.00 0.00 0.00 27 1014.6
20260906225027 26 360 8.0 20.9 0.00 0.00 0.00 26 1014.7
20260906224557 26 360 8.0 29.0 0.00 0.00 0.00 28 1014.6
20260906224024 26 360 14.5 29.0 0.00 0.00 0.00 29 1014.5
20260906223524 26 360 8.0 20.9 0.00 0.00 0.00 28 1014.5
20260906221551 27 360 9.7 19.3 0.00 0.00 0.00 28 1014.8
20260906220524 27 360 6.4 29.0 0.00 0.00 0.00 28 1014.7
20260906220049 27 82 12.9 29.0 0.00 0.00 0.00 26 1014.9
20260906215527 27 80 16.1 29.0 0.00 0.00 0.00 27 1015.0
20260906215023 27 75 11.3 25.7 0.00 0.00 0.00 28 1015.2
20260906214024 27 360 16.1 35.4 0.00 0.00 0.00 27 1015.2
20260906213524 27 360 16.1 30.6 0.00 0.00 0.00 26 1015.1
20260906212523 27 87 22.5 33.8 0.00 0.00 0.00 26 1015.2
20260906212023 28 87 17.7 32.2 0.00 0.00 0.00 27 1015.3
20260906211552 28 83 12.9 32.2 0.00 0.00 0.00 26 1015.4
20260906211023 28 62 19.3 32.2 0.00 0.00 0.00 27 1015.4
20260906210058 27 69 14.5 32.2 0.00 0.00 0.00 27 1015.3
20260906204546 27 72 14.5 29.0 0.00 0.00 0.00 27 1015.4
20260906204023 28 72 17.7 33.8 0.00 0.00 0.00 26 1015.6
20260906203524 27 55 19.3 37.0 0.00 0.00 0.00 24 1015.5
20260906203050 27 71 16.1 37.0 0.00 0.00 0.00 25 1015.6
20260906201550 27 71 9.7 25.7 0.00 0.00 0.00 25 1015.7
20260906200051 27 67 16.1 30.6 0.00 0.00 0.00 26 1015.8
20260906195023 27 132 12.9 33.8 0.00 0.00 0.00 24 1015.8
20260906194553 27 360 20.9 33.8 0.00 0.00 0.00 27 1015.8
20260906194020 26 69 19.3 40.2 0.00 0.00 0.00 27 1016.0
20260906193045 26 360 25.7 35.4 0.00 0.00 0.00 31 1016.0
20260906191547 26 360 24.1 33.8 0.00 0.00 0.00 32 1016.4
20260906190045 25 360 19.3 29.0 0.00 0.00 0.00 32 1016.7
20260906185523 25 360 17.7 30.6 0.00 0.00 0.00 33 1016.8
20260906185025 24 360 16.1 30.6 0.00 0.00 0.00 35 1016.9
20260906184552 24 360 16.1 27.4 0.00 0.00 0.00 36 1017.2
20260906184021 23 61 14.5 25.7 0.00 0.00 0.00 36 1017.4
20260906183045 23 51 17.7 27.4 0.00 0.00 0.00 37 1017.7
20260906181555 23 61 17.7 25.7 0.00 0.00 0.00 37 1018.0
20260906180051 22 360 9.7 20.9 0.00 0.00 0.00 37 1018.4
20260906175024 22 360 14.5 20.9 0.00 0.00 0.00 35 1018.8
20260906174554 21 360 11.3 17.7 0.00 0.00 0.00 37 1018.8
20260906174023 21 360 11.3 17.7 0.00 0.00 0.00 37 1018.9
20260906173523 21 360 9.7 17.7 0.00 0.00 0.00 38 1019.1
20260906173101 21 360 9.7 16.1 0.00 0.00 0.00 39 1019.2
20260906172520 21 360 8.0 16.1 0.00 0.00 0.00 40 1019.2
20260906171558 20 360 8.0 17.7 0.00 0.00 0.00 40 1019.3
20260906170050 21 360 3.2 16.1 0.00 0.00 0.00 39 1019.5
20260906164546 20 360 1.6 9.7 0.00 0.00 0.00 39 1019.6
20260906164024 20 360 3.2 9.7 0.00 0.00 0.00 39 1019.7
20260906163523 19 360 1.6 4.8 0.00 0.00 0.00 40 1019.6
20260906163051 19 0 0.0 4.8 0.00 0.00 0.00 40 1019.6
20260906162524 18 268 0.0 6.4 0.00 0.00 0.00 40 1019.7
20260906161549 18 259 1.6 6.4 0.00 0.00 0.00 41 1019.7
20260906160044 17 0 0.0 8.0 0.00 0.00 0.00 43 1020.0
20260906155523 17 0 1.6 9.7 0.00 0.00 0.00 43 1020.0
20260906155025 17 360 3.2 12.9 0.00 0.00 0.00 43 1020.0
20260906154556 17 360 4.8 12.9 0.00 0.00 0.00 44 1020.2
20260906154021 17 360 1.6 9.7 0.00 0.00 0.00 43 1020.2
20260906153051 16 360 3.2 9.7 0.00 0.00 0.00 46 1020.2
20260906151545 15 360 3.2 8.0 0.00 0.00 0.00 48 1020.3
20260906150043 15 360 3.2 6.4 0.00 0.00 0.00 50 1020.5
20260906145523 15 360 0.0 4.8 0.00 0.00 0.00 50 1020.6
20260906145025 14 0 0.0 3.2 0.00 0.00 0.00 50 1020.7
20260906144554 14 0 0.0 0.0 0.00 0.00 0.00 51 1020.8
20260906144023 14 0 0.0 0.0 0.00 0.00 0.00 51 1020.8
20260906143521 13 0 0.0 0.0 0.00 0.00 0.00 50 1020.8
20260906143107 13 0 0.0 0.0 0.00 0.00 0.00 49 1020.8
20260906141554 13 0 0.0 0.0 0.00 0.00 0.00 51 1020.9
20260906140047 13 0 0.0 0.0 0.00 0.00 0.00 52 1020.8
20260906134544 12 0 0.0 0.0 0.00 0.00 0.00 54 1020.8
20260906133520 12 0 0.0 0.0 0.00 0.00 0.00 54 1020.8
20260906133058 12 0 0.0 0.0 0.00 0.00 0.00 54 1020.8
20260906131556 11 146 0.0 8.0 0.00 0.00 0.00 56 1020.8
20260906130050 10 0 0.0 0.0 0.00 0.00 0.00 59 1020.7
20260906124544 10 0 0.0 0.0 0.00 0.00 0.00 57 1020.8
20260906124024 11 0 0.0 0.0 0.00 0.00 0.00 55 1020.7
20260906123524 11 0 0.0 0.0 0.00 0.00 0.00 56 1020.8
20260906123051 11 0 0.0 0.0 0.00 0.00 0.00 55 1020.7
20260906122521 11 0 0.0 0.0 0.00 0.00 0.00 55 1020.8
20260906121550 11 0 0.0 0.0 0.00 0.00 0.00 55 1020.8
20260906121020 11 0 0.0 0.0 0.00 0.00 0.00 55 1020.8
20260906120043 11 0 0.0 0.0 0.00 0.00 0.00 55 1020.8
20260906115523 11 0 0.0 0.0 0.00 0.00 0.00 54 1020.8
20260906115024 11 0 0.0 0.0 0.00 0.00 0.00 54 1020.9
20260906114551 11 0 0.0 0.0 0.00 0.00 0.00 55 1020.9
20260906114026 12 0 0.0 0.0 0.00 0.00 0.00 54 1020.9
20260906113520 12 0 0.0 0.0 0.00 0.00 0.00 53 1020.8
20260906113051 12 0 0.0 0.0 0.00 0.00 0.00 52 1020.8
20260906112520 12 0 0.0 1.6 0.00 0.00 0.00 53 1020.7
20260906111549 12 0 0.0 0.0 0.00 0.00 0.00 53 1020.8
20260906110042 12 0 0.0 0.0 0.00 0.00 0.00 53 1020.7
20260906104540 12 0 0.0 0.0 0.00 0.00 0.00 53 1020.7
20260906104023 12 0 0.0 0.0 0.00 0.00 0.00 53 1020.7
20260906103522 12 0 0.0 0.0 0.00 0.00 0.00 53 1020.7
20260906103053 12 0 0.0 0.0 0.00 0.00 0.00 53 1020.7
20260906102021 12 0 1.6 4.8 0.00 0.00 0.00 52 1020.5
20260906101549 12 0 0.0 0.0 0.00 0.00 0.00 53 1020.4
20260906100043 13 0 0.0 4.8 0.00 0.00 0.00 51 1020.5
20260906095023 13 360 0.0 4.8 0.00 0.00 0.00 51 1020.4
20260906094554 13 0 0.0 4.8 0.00 0.00 0.00 51 1020.4
20260906094021 12 0 0.0 4.8 0.00 0.00 0.00 52 1020.4
20260906093521 12 0 0.0 4.8 0.00 0.00 0.00 52 1020.4
20260906093044 12 0 1.6 4.8 0.00 0.00 0.00 52 1020.4
20260906091543 13 0 0.0 1.6 0.00 0.00 0.00 49 1020.5
20260906091023 13 0 0.0 1.6 0.00 0.00 0.00 49 1020.3
20260906090524 13 0 0.0 1.6 0.00 0.00 0.00 50 1020.2
20260906090051 13 0 0.0 3.2 0.00 0.00 0.00 50 1020.2
20260906085521 13 0 0.0 4.8 0.00 0.00 0.00 49 1020.2
20260906084550 13 0 0.0 12.9 0.00 0.00 0.00 49 1020.0
20260906083049 14 0 0.0 3.2 0.00 0.00 0.00 50 1020.3
20260906081543 15 0 0.0 11.3 0.00 0.00 0.00 47 1020.1
20260906081023 15 215 1.6 9.7 0.00 0.00 0.00 47 1020.5
20260906080524 15 0 1.6 9.7 0.00 0.00 0.00 47 1020.9
20260906080051 15 0 0.0 3.2 0.00 0.00 0.00 47 1020.9
20260906074550 14 0 0.0 4.8 0.00 0.00 0.00 48 1021.0
20260906073044 15 0 0.0 0.0 0.00 0.00 0.00 48 1020.6
20260906072023 15 0 0.0 0.0 0.00 0.00 0.00 47 1020.6
20260906071559 15 0 0.0 1.6 0.00 0.00 0.00 47 1020.7
20260906071024 15 0 0.0 1.6 0.00 0.00 0.00 47 1020.8
20260906070523 15 0 0.0 0.0 0.00 0.00 0.00 48 1020.6
20260906070047 15 0 0.0 3.2 0.00 0.00 0.00 47 1020.6
20260906064543 15 0 3.2 8.0 0.00 0.00 0.00 47 1020.5
20260906063523 15 360 0.0 4.8 0.00 0.00 0.00 48 1020.5
20260906063040 14 0 0.0 1.6 0.00 0.00 0.00 48 1020.6
20260906062520 14 0 0.0 0.0 0.00 0.00 0.00 48 1020.6
20260906062021 14 0 0.0 0.0 0.00 0.00 0.00 47 1020.6
20260906061551 14 0 0.0 0.0 0.00 0.00 0.00 46 1020.6
20260906060045 15 0 0.0 0.0 0.00 0.00 0.00 46 1020.5
20260906054542 15 0 0.0 4.8 0.00 0.00 0.00 45 1020.5
20260906054024 15 0 0.0 4.8 0.00 0.00 0.00 45 1020.5
20260906053523 15 360 0.0 4.8 0.00 0.00 0.00 46 1020.4
20260906053049 15 0 0.0 4.8 0.00 0.00 0.00 45 1020.3
20260906052521 15 360 0.0 4.8 0.00 0.00 0.00 45 1020.4
20260906052022 15 0 0.0 1.6 0.00 0.00 0.00 45 1020.4
20260906051553 15 360 0.0 1.6 0.00 0.00 0.00 45 1020.4
20260906050110 16 0 0.0 1.6 0.00 0.00 0.00 43 1020.5
20260906044540 16 0 0.0 1.6 0.00 0.00 0.00 43 1020.3
20260906044026 16 0 0.0 3.2 0.00 0.00 0.00 42 1020.2
20260906043524 16 0 0.0 3.2 0.00 0.00 0.00 43 1020.3
20260906043101 17 0 0.0 1.6 0.00 0.00 0.00 42 1020.2
20260906041546 17 0 0.0 1.6 0.00 0.00 0.00 41 1020.2
20260906040046 17 360 0.0 4.8 0.00 0.00 0.00 40 1020.1
20260906035521 17 360 0.0 6.4 0.00 0.00 0.00 40 1020.2
20260906035023 17 360 0.0 8.0 0.00 0.00 0.00 40 1020.1
20260906034550 17 360 4.8 8.0 0.00 0.00 0.00 39 1020.2
20260906033048 17 360 3.2 9.7 0.00 0.00 0.00 40 1020.0
20260906031546 18 0 0.0 9.7 0.00 0.00 0.00 39 1019.9
20260906030040 18 360 6.4 12.9 0.00 0.00 0.00 40 1019.8
20260906025523 18 360 4.8 8.0 0.00 0.00 0.00 40 1019.7
20260906025021 18 360 3.2 6.4 0.00 0.00 0.00 39 1019.7
20260906024548 18 360 3.2 6.4 0.00 0.00 0.00 39 1019.5
20260906024034 18 360 1.6 12.9 0.00 0.00 0.00 38 1019.5
20260906023053 19 360 6.4 12.9 0.00 0.00 0.00 38 1019.3
20260906021606 20 360 3.2 8.0 0.00 0.00 0.00 37 1019.3
20260906020100 21 360 4.8 8.0 0.00 0.00 0.00 35 1019.2
20260906015521 21 360 1.6 12.9 0.00 0.00 0.00 34 1019.1
20260906015021 21 360 3.2 12.9 0.00 0.00 0.00 34 1018.9
20260906014550 21 360 3.2 12.9 0.00 0.00 0.00 33 1018.9
20260906013051 22 360 1.6 14.5 0.00 0.00 0.00 33 1019.1
20260906012524 22 360 4.8 14.5 0.00 0.00 0.00 33 1019.1
20260906012023 22 360 1.6 14.5 0.00 0.00 0.00 33 1019.0
20260906011552 22 360 6.4 14.5 0.00 0.00 0.00 32 1018.9
20260906011023 22 360 3.2 9.7 0.00 0.00 0.00 32 1018.9
20260906010050 23 360 3.2 16.1 0.00 0.00 0.00 32 1019.1
20260906004546 23 360 3.2 16.1 0.00 0.00 0.00 31 1018.8
20260906003527 24 360 8.0 19.3 0.00 0.00 0.00 30 1018.7
20260906003041 24 360 9.7 22.5 0.00 0.00 0.00 30 1018.7
20260906002525 25 96 6.4 22.5 0.00 0.00 0.00 30 1018.7
20260906001551 24 52 11.3 20.9 0.00 0.00 0.00 30 1018.7
20260906000049 25 360 11.3 25.7 0.00 0.00 0.00 29 1018.6
20260905234553 25 360 11.3 24.1 0.00 0.00 0.00 29 1018.7
20260905234023 25 360 14.5 27.4 0.00 0.00 0.00 29 1018.7
20260905233519 25 360 17.7 27.4 0.00 0.00 0.00 29 1018.7
20260905233050 25 62 12.9 22.5 0.00 0.00 0.00 29 1018.6
20260905232021 25 67 12.9 29.0 0.00 0.00 0.00 29 1018.6
20260905231550 25 61 11.3 32.2 0.00 0.00 0.00 29 1018.6